DW1824 Weather Reports


Display with metric or nautical units.
time (UTC)temp
F
wind
direction
speed
MPH
gust
MPH
rain 1hr
in
rain 24hr
in
rain mn
in
humidity
%
barometer
mb
20260505052337 70 145 2.0 5.0 0.00 0.00 0.00 87 1010.6
20260505051324 70 134 2.0 3.0 0.00 0.00 0.00 86 1010.8
20260505050328 70 142 1.0 3.0 0.00 0.00 0.00 86 1010.9
20260505041340 71 140 2.0 5.0 0.00 0.00 0.00 84 1011.0
20260505040324 71 133 2.0 6.0 0.00 0.00 0.00 83 1011.0
20260505035332 71 135 2.0 4.0 0.00 0.00 0.00 83 1011.1
20260505034338 71 137 2.0 6.0 0.00 0.00 0.00 83 1011.0
20260505033324 71 132 3.0 6.0 0.00 0.00 0.00 83 1011.1
20260505032330 72 146 2.0 8.0 0.00 0.00 0.00 82 1011.1
20260505031356 72 130 3.0 6.0 0.00 0.00 0.00 82 1011.2
20260505030337 72 136 2.0 5.0 0.00 0.00 0.00 81 1011.2
20260505025346 72 140 3.0 7.0 0.00 0.00 0.00 81 1011.0
20260505024332 72 142 3.0 5.0 0.00 0.00 0.00 81 1011.0
20260505023340 72 117 3.0 5.0 0.00 0.00 0.00 80 1011.0
20260505022329 73 141 3.0 6.0 0.00 0.00 0.00 80 1011.1
20260505021341 73 136 3.0 7.0 0.00 0.00 0.00 79 1011.0
20260505020326 73 138 3.0 7.0 0.00 0.00 0.00 78 1010.7
20260505015354 74 139 2.0 7.0 0.00 0.00 0.00 78 1010.6
20260505014336 74 164 2.0 7.0 0.00 0.00 0.00 76 1010.6
20260505013400 75 147 2.0 6.0 0.00 0.00 0.00 76 1010.5
20260505012326 75 140 3.0 7.0 0.00 0.00 0.00 75 1010.4
20260505011334 75 105 4.0 8.0 0.00 0.00 0.00 76 1010.2
20260505010340 75 141 3.0 6.0 0.00 0.00 0.00 76 1010.1
20260505005350 75 135 3.0 5.0 0.00 0.00 0.00 75 1010.3
20260505004359 76 134 3.0 4.0 0.00 0.00 0.00 74 1010.3
20260505003337 77 140 2.0 6.0 0.00 0.00 0.00 72 1010.3
20260505002322 77 159 2.0 6.0 0.00 0.00 0.00 71 1010.3
20260505001330 77 167 1.0 6.0 0.00 0.00 0.00 71 1010.3
20260505000352 78 160 3.0 11.0 0.00 0.00 0.00 69 1010.3
20260504235338 79 177 5.0 10.0 0.00 0.00 0.00 67 1010.2
20260504234325 79 158 3.0 7.0 0.00 0.00 0.00 68 1010.2
20260504233347 79 143 3.0 11.0 0.00 0.00 0.00 67 1010.6
20260504232333 78 148 3.0 8.0 0.00 0.00 0.00 69 1010.5
20260504231400 78 146 3.0 8.0 0.00 0.00 0.00 70 1010.7
20260504230326 78 203 6.0 11.0 0.00 0.00 0.00 68 1010.7
20260504225332 79 176 5.0 10.0 0.00 0.00 0.00 68 1010.8
20260504224358 79 166 3.0 10.0 0.00 0.00 0.00 69 1010.9
20260504223341 79 166 2.0 7.0 0.00 0.00 0.00 68 1011.0
20260504222327 79 160 3.0 8.0 0.00 0.00 0.00 68 1011.1
20260504221332 79 137 2.0 8.0 0.00 0.00 0.00 66 1011.0
20260504220337 79 167 3.0 9.0 0.00 0.00 0.00 66 1011.2
20260504215328 79 145 2.0 10.0 0.00 0.00 0.00 67 1011.5
20260504214334 79 192 3.0 8.0 0.00 0.00 0.00 66 1011.7
20260504213340 79 168 3.0 8.0 0.00 0.00 0.00 65 1011.7
20260504212327 80 177 4.0 9.0 0.00 0.00 0.00 64 1011.9
20260504211334 80 191 3.0 8.0 0.00 0.00 0.00 65 1012.0
20260504210339 80 139 3.0 7.0 0.00 0.00 0.00 63 1012.1
20260504205327 80 145 3.0 6.0 0.00 0.00 0.00 63 1011.9
20260504204338 80 175 2.0 7.0 0.00 0.00 0.00 64 1012.3
20260504203323 81 140 2.0 9.0 0.00 0.00 0.00 62 1012.4
20260504202327 81 164 2.0 7.0 0.00 0.00 0.00 62 1012.4
20260504201334 81 163 3.0 7.0 0.00 0.00 0.00 61 1012.6
20260504200338 80 154 2.0 8.0 0.00 0.00 0.00 60 1012.9
20260504195326 80 173 2.0 5.0 0.00 0.00 0.00 61 1013.0
20260504194333 80 144 3.0 7.0 0.00 0.00 0.00 62 1013.1
20260504193357 80 237 3.0 7.0 0.00 0.00 0.00 63 1013.3
20260504192326 80 208 2.0 7.0 0.00 0.00 0.00 62 1013.6
20260504191334 79 179 3.0 7.0 0.00 0.00 0.00 61 1013.6
20260504190341 79 150 4.0 8.0 0.00 0.00 0.00 64 1013.7
20260504185328 79 192 3.0 8.0 0.00 0.00 0.00 63 1013.7
20260504184334 79 169 2.0 5.0 0.00 0.00 0.00 62 1013.7
20260504183340 79 134 4.0 9.0 0.00 0.00 0.00 64 1014.1
20260504182331 78 192 3.0 7.0 0.00 0.00 0.00 64 1014.2
20260504181337 79 148 3.0 8.0 0.00 0.00 0.00 64 1014.3
20260504180341 79 170 4.0 9.0 0.00 0.00 0.00 62 1014.5
20260504175327 78 137 2.0 7.0 0.00 0.00 0.00 64 1014.3
20260504174354 79 181 3.0 12.0 0.00 0.00 0.00 64 1014.6
20260504173338 78 162 3.0 6.0 0.00 0.00 0.00 65 1014.9
20260504172345 78 169 4.0 8.0 0.00 0.00 0.00 65 1015.0
20260504171337 77 167 4.0 11.0 0.00 0.00 0.00 64 1015.0
20260504170400 78 134 5.0 9.0 0.00 0.00 0.00 64 1015.2
20260504160333 76 149 5.0 10.0 0.00 0.00 0.00 67 1016.0
20260504150351 73 160 2.0 8.0 0.00 0.00 0.00 71 1016.0
20260504141335 70 141 2.0 7.0 0.00 0.00 0.00 75 1016.1
20260504140339 69 137 3.0 8.0 0.00 0.00 0.00 77 1016.4
20260504130334 64 131 2.0 5.0 0.00 0.00 0.00 80 1016.2
20260504110338 59 123 1.0 2.0 0.00 0.00 0.00 82 1016.0
20260504100325 60 152 1.0 3.0 0.00 0.00 0.00 80 1015.9
20260504081341 61 147 1.0 2.0 0.00 0.00 0.00 82 1016.6
20260504080327 61 131 1.0 2.0 0.00 0.00 0.00 82 1016.6
20260504070332 61 171 0.0 0.0 0.00 0.00 0.00 84 1017.7